QPF
0.21 0.17 0.14 0.11 0.11 0.10 0.09 0.06 0.03 0.01 0.01 0.01 0.00 0.00 0.00 0.00 0.00 0.00 0.00 0.00 0.00 0.00 0.00 0.00 0.00 0.00 0.00 0.00 0.00 0.00 0.00 0.00 0.00 0.00 0.00 0.00 0.00 0.00 0.00 0.00 0.01 0.02 0.05
0.25 0.20 0.16 0.11 0.12 0.09 0.05 0.02 0.01 0.01 0.00 0.00 0.00 0.00 0.00 0.00 0.00 0.00 0.00 0.00 0.00 0.00 0.00 0.00 0.00 0.00 0.00 0.00 0.00 0.00 0.00 0.00 0.00 0.00 0.00 0.00 0.00 0.00 0.00 0.01 0.01 0.02 0.03
0.19 0.19 0.15 0.09 0.05 0.03 0.02 0.01 0.01 0.00 0.00 0.00 0.00 0.00 0.00 0.00 0.00 0.00 0.00 0.00 0.00 0.00 0.00 0.00 0.00 0.00 0.00 0.00 0.00 0.00 0.00 0.00 0.00 0.00 0.00 0.00 0.00 0.00 0.00 0.01 0.02 0.03 0.03
0.09 0.11 0.07 0.04 0.02 0.01 0.01 0.01 0.01 0.01 0.01 0.00 0.00 0.00 0.00 0.00 0.00 0.00 0.00 0.00 0.00 0.00 0.00 0.00 0.00 0.00 0.00 0.00 0.00 0.00 0.00 0.00 0.00 0.00 0.00 0.00 0.00 0.00 0.00 0.00 0.01 0.01 0.01
0.05 0.04 0.03 0.02 0.01 0.00 0.00 0.01 0.02 0.03 0.02 0.01 0.00 0.00 0.00 0.00 0.00 0.00 0.00 0.00 0.00 0.00 0.00 0.00 0.00 0.00 0.00 0.00 0.00 0.00 0.00 0.00 0.00 0.00 0.00 0.00 0.00 0.00 0.00 0.00 0.00 0.00 0.00
0.02 0.02 0.01 0.01 0.01 0.01 0.01 0.02 0.05 0.05 0.02 0.01 0.00 0.00 0.00 0.00 0.00 0.00 0.00 0.00 0.00 0.00 0.00 0.00 0.00 0.00 0.00 0.00 0.00 0.00 0.00 0.00 0.00 0.00 0.00 0.00 0.00 0.00 0.00 0.00 0.00 0.00 0.00
0.01 0.01 0.01 0.01 0.00 0.00 0.01 0.02 0.04 0.03 0.01 0.01 0.00 0.00 0.00 0.00 0.00 0.00 0.00 0.00 0.00 0.00 0.00 0.00 0.00 0.00 0.00 0.00 0.00 0.00 0.00 0.00 0.00 0.00 0.00 0.00 0.00 0.00 0.00 0.00 0.00 0.00 0.00
0.01 0.01 0.01 0.01 0.00 0.01 0.01 0.01 0.01 0.01 0.01 0.00 0.00 0.00 0.00 0.00 0.00 0.00 0.00 0.00 0.00 0.00 0.00 0.00 0.00 0.00 0.00 0.00 0.00 0.00 0.00 0.00 0.00 0.00 0.00 0.00 0.00 0.00 0.00 0.00 0.00 0.00 0.00
0.01 0.01 0.01 0.00 0.00 0.01 0.01 0.00 0.00 0.00 0.00 0.00 0.00 0.00 0.00 0.00 0.00 0.00 0.00 0.00 0.00 0.00 0.00 0.00 0.00 0.00 0.00 0.00 0.00 0.00 0.00 0.00 0.00 0.00 0.00 0.00 0.00 0.00 0.00 0.00 0.00 0.00 0.00
0.00 0.00 0.01 0.00 0.00 0.00 0.00 0.00 0.00 0.00 0.00 0.00 0.00 0.00 0.00 0.00 0.00 0.00 0.00 0.00 0.00 0.00 0.00 0.00 0.00 0.00 0.00 0.00 0.00 0.00 0.00 0.00 0.00 0.00 0.00 0.00 0.00 0.00 0.00 0.00 0.00 0.00 0.00
0.00 0.00 0.00 0.00 0.00 0.00 0.00 0.00 0.00 0.00 0.00 0.00 0.00 0.00 0.00 0.00 0.00 0.00 0.00 0.00 0.00 0.00 0.00 0.00 0.00 0.00 0.00 0.00 0.00 0.00 0.00 0.00 0.00 0.00 0.00 0.00 0.00 0.00 0.00 0.00 0.00 0.00 0.00
0.00 0.00 0.00 0.00 0.00 0.00 0.00 0.00 0.00 0.00 0.00 0.00 0.00 0.00 0.00 0.00 0.00 0.00 0.00 0.00 0.00 0.00 0.00 0.00 0.00 0.00 0.00 0.00 0.00 0.00 0.00 0.00 0.00 0.00 0.00 0.00 0.00 0.00 0.00 0.00 0.00 0.00 0.00
0.00 0.00 0.00 0.00 0.00 0.00 0.00 0.00 0.00 0.00 0.00 0.00 0.00 0.00 0.00 0.00 0.00 0.00 0.00 0.00 0.00 0.00 0.00 0.00 0.00 0.00 0.00 0.00 0.00 0.00 0.00 0.00 0.00 0.00 0.00 0.00 0.01 0.00 0.00 0.00 0.00 0.00 0.00
0.00 0.00 0.00 0.00 0.00 0.00 0.00 0.00 0.00 0.00 0.00 0.00 0.00 0.00 0.00 0.00 0.00 0.00 0.00 0.00 0.00 0.00 0.00 0.00 0.00 0.00 0.00 0.00 0.00 0.00 0.00 0.00 0.00 0.00 0.00 0.00 0.00 0.00 0.01 0.01 0.01 0.00 0.00
0.00 0.00 0.00 0.00 0.00 0.00 0.00 0.00 0.00 0.00 0.00 0.00 0.00 0.00 0.00 0.00 0.00 0.00 0.00 0.00 0.00 0.00 0.00 0.00 0.00 0.00 0.00 0.00 0.00 0.00 0.00 0.00 0.00 0.00 0.00 0.00 0.00 0.00 0.01 0.01 0.00 0.00 0.00
0.00 0.00 0.00 0.00 0.00 0.00 0.00 0.00 0.00 0.00 0.00 0.00 0.00 0.00 0.00 0.00 0.00 0.00 0.00 0.00 0.00 0.00 0.00 0.00 0.00 0.00 0.00 0.00 0.00 0.00 0.00 0.00 0.00 0.00 0.00 0.00 0.00 0.00 0.00 0.00 0.00 0.00 0.00
0.00 0.00 0.00 0.00 0.00 0.00 0.00 0.00 0.00 0.00 0.00 0.00 0.00 0.00 0.00 0.00 0.00 0.00 0.00 0.00 0.00 0.00 0.00 0.00 0.00 0.00 0.00 0.00 0.00 0.00 0.00 0.00 0.00 0.00 0.00 0.00 0.00 0.00 0.00 0.01 0.00 0.00 0.00
0.00 0.00 0.00 0.00 0.00 0.00 0.00 0.00 0.00 0.00 0.00 0.00 0.00 0.00 0.00 0.00 0.00 0.00 0.00 0.00 0.00 0.00 0.00 0.00 0.00 0.00 0.00 0.00 0.00 0.00 0.00 0.00 0.00 0.00 0.00 0.00 0.00 0.00 0.01 0.01 0.00 0.00 0.00
0.00 0.00 0.00 0.00 0.00 0.00 0.00 0.00 0.00 0.00 0.00 0.00 0.00 0.00 0.00 0.00 0.00 0.00 0.00 0.00 0.00 0.00 0.00 0.00 0.00 0.00 0.00 0.01 0.00 0.01 0.00 0.00 0.00 0.00 0.00 0.00 0.01 0.01 0.01 0.01 0.00 0.00 0.00
0.00 0.00 0.00 0.00 0.00 0.00 0.00 0.00 0.00 0.00 0.00 0.00 0.00 0.00 0.00 0.00 0.00 0.00 0.00 0.00 0.00 0.00 0.00 0.00 0.00 0.00 0.00 0.01 0.00 0.01 0.00 0.00 0.00 0.00 0.00 0.00 0.00 0.00 0.00 0.00 0.00 0.00 0.00
0.00 0.00 0.00 0.00 0.00 0.00 0.00 0.00 0.00 0.00 0.00 0.00 0.00 0.00 0.00 0.00 0.00 0.00 0.00 0.00 0.00 0.00 0.00 0.00 0.00 0.00 0.00 0.00 0.00 0.01 0.00 0.00 0.00 0.00 0.00 0.00 0.00 0.00 0.00 0.00 0.00 0.00 0.00
0.01 0.01 0.01 0.01 0.01 0.01 0.00 0.00 0.00 0.00 0.00 0.00 0.00 0.01 0.01 0.00 0.00 0.00 0.00 0.00 0.00 0.00 0.00 0.00 0.00 0.00 0.00 0.00 0.00 0.00 0.00 0.00 0.00 0.00 0.00 0.00 0.00 0.00 0.00 0.00 0.00 0.00 0.00
0.02 0.01 0.01 0.01 0.01 0.01 0.01 0.01 0.01 0.01 0.01 0.01 0.01 0.01 0.01 0.01 0.01 0.01 0.01 0.01 0.01 0.01 0.00 0.01 0.00 0.00 0.00 0.00 0.00 0.00 0.00 0.00 0.00 0.00 0.00 0.00 0.00 0.00 0.00 0.00 0.00 0.00 0.00
0.02 0.02 0.02 0.02 0.01 0.01 0.01 0.01 0.01 0.01 0.01 0.01 0.02 0.02 0.02 0.02 0.02 0.01 0.01 0.01 0.01 0.01 0.01 0.01 0.01 0.01 0.01 0.00 0.00 0.00 0.00 0.00 0.00 0.00 0.00 0.00 0.00 0.00 0.00 0.00 0.00 0.00 0.00
0.02 0.02 0.02 0.02 0.02 0.02 0.02 0.02 0.01 0.02 0.02 0.02 0.02 0.02 0.02 0.01 0.01 0.01 0.01 0.01 0.01 0.01 0.02 0.01 0.01 0.01 0.01 0.01 0.01 0.01 0.01 0.00 0.00 0.00 0.00 0.00 0.00 0.00 0.00 0.00 0.00 0.00 0.00
0.01 0.01 0.01 0.02 0.02 0.02 0.02 0.02 0.02 0.03 0.03 0.03 0.03 0.02 0.02 0.02 0.01 0.01 0.01 0.01 0.01 0.01 0.02 0.01 0.01 0.01 0.01 0.01 0.01 0.01 0.01 0.00 0.00 0.00 0.00 0.00 0.00 0.00 0.00 0.00 0.01 0.01 0.01
MSLP
1014.81 1014.73 1014.67 1014.65 1014.66 1014.71 1014.83 1015.00 1015.25 1015.56 1015.90 1016.26 1016.60 1016.90 1017.13 1017.28 1017.36 1017.38 1017.39 1017.40 1017.44 1017.52 1017.66 1017.83 1018.01 1018.19 1018.34 1018.44 1018.49 1018.50 1018.48 1018.43 1018.37 1018.30 1018.21 1018.09 1017.91 1017.68 1017.38 1017.03 1016.65 1016.28 1015.95
1015.21 1015.16 1015.10 1015.01 1014.92 1014.87 1014.88 1014.99 1015.21 1015.54 1015.95 1016.40 1016.83 1017.19 1017.45 1017.58 1017.61 1017.56 1017.47 1017.39 1017.36 1017.41 1017.54 1017.74 1017.97 1018.19 1018.38 1018.51 1018.58 1018.59 1018.56 1018.51 1018.46 1018.42 1018.37 1018.30 1018.18 1018.00 1017.74 1017.41 1017.02 1016.60 1016.21
1015.44 1015.44 1015.39 1015.27 1015.12 1014.98 1014.91 1014.97 1015.17 1015.52 1015.99 1016.51 1017.02 1017.44 1017.73 1017.87 1017.85 1017.73 1017.56 1017.41 1017.32 1017.33 1017.44 1017.65 1017.90 1018.15 1018.37 1018.51 1018.59 1018.60 1018.57 1018.53 1018.51 1018.50 1018.51 1018.51 1018.48 1018.37 1018.18 1017.89 1017.51 1017.08 1016.64
1015.40 1015.47 1015.45 1015.34 1015.17 1014.99 1014.88 1014.90 1015.10 1015.46 1015.97 1016.55 1017.12 1017.60 1017.93 1018.07 1018.04 1017.88 1017.65 1017.44 1017.30 1017.27 1017.37 1017.56 1017.82 1018.08 1018.30 1018.45 1018.53 1018.54 1018.52 1018.49 1018.49 1018.53 1018.61 1018.68 1018.73 1018.72 1018.60 1018.37 1018.03 1017.61 1017.14
1015.06 1015.21 1015.26 1015.19 1015.04 1014.87 1014.75 1014.75 1014.95 1015.33 1015.86 1016.48 1017.10 1017.63 1017.99 1018.16 1018.13 1017.96 1017.71 1017.47 1017.30 1017.24 1017.31 1017.49 1017.73 1017.98 1018.20 1018.34 1018.41 1018.42 1018.40 1018.39 1018.41 1018.49 1018.62 1018.76 1018.88 1018.94 1018.90 1018.74 1018.45 1018.05 1017.58
1014.45 1014.69 1014.82 1014.83 1014.74 1014.61 1014.50 1014.52 1014.71 1015.10 1015.64 1016.28 1016.92 1017.48 1017.88 1018.08 1018.09 1017.94 1017.70 1017.46 1017.28 1017.21 1017.26 1017.42 1017.64 1017.87 1018.06 1018.19 1018.25 1018.25 1018.22 1018.22 1018.26 1018.36 1018.51 1018.70 1018.87 1018.99 1019.00 1018.90 1018.66 1018.30 1017.86
1013.65 1013.96 1014.20 1014.31 1014.31 1014.24 1014.18 1014.22 1014.41 1014.79 1015.32 1015.95 1016.60 1017.18 1017.61 1017.85 1017.89 1017.79 1017.60 1017.39 1017.23 1017.16 1017.20 1017.34 1017.53 1017.73 1017.89 1017.99 1018.03 1018.02 1017.99 1017.98 1018.02 1018.12 1018.28 1018.48 1018.67 1018.81 1018.86 1018.80 1018.61 1018.30 1017.90
1012.74 1013.13 1013.47 1013.70 1013.80 1013.82 1013.82 1013.89 1014.09 1014.45 1014.95 1015.55 1016.17 1016.74 1017.19 1017.46 1017.56 1017.52 1017.39 1017.23 1017.11 1017.06 1017.10 1017.22 1017.38 1017.55 1017.68 1017.75 1017.77 1017.74 1017.70 1017.68 1017.71 1017.79 1017.94 1018.12 1018.29 1018.43 1018.49 1018.45 1018.29 1018.04 1017.70
1011.82 1012.29 1012.73 1013.07 1013.29 1013.41 1013.49 1013.59 1013.80 1014.13 1014.58 1015.13 1015.70 1016.24 1016.68 1016.97 1017.12 1017.14 1017.08 1016.99 1016.92 1016.90 1016.95 1017.05 1017.19 1017.32 1017.42 1017.47 1017.47 1017.43 1017.37 1017.34 1017.35 1017.41 1017.52 1017.65 1017.79 1017.90 1017.94 1017.90 1017.78 1017.57 1017.30
1010.98 1011.52 1012.05 1012.50 1012.83 1013.05 1013.21 1013.36 1013.57 1013.87 1014.27 1014.74 1015.25 1015.73 1016.14 1016.44 1016.61 1016.69 1016.69 1016.66 1016.65 1016.66 1016.73 1016.83 1016.95 1017.05 1017.13 1017.15 1017.14 1017.09 1017.03 1016.98 1016.97 1017.00 1017.06 1017.15 1017.23 1017.29 1017.30 1017.25 1017.14 1016.97 1016.77
1010.28 1010.87 1011.48 1012.02 1012.45 1012.77 1013.01 1013.21 1013.43 1013.70 1014.04 1014.44 1014.86 1015.27 1015.62 1015.90 1016.09 1016.20 1016.25 1016.28 1016.32 1016.37 1016.45 1016.55 1016.66 1016.75 1016.80 1016.81 1016.79 1016.74 1016.68 1016.63 1016.61 1016.61 1016.63 1016.66 1016.69 1016.69 1016.65 1016.58 1016.47 1016.33 1016.18
1009.73 1010.35 1011.01 1011.62 1012.13 1012.54 1012.85 1013.11 1013.35 1013.60 1013.89 1014.22 1014.55 1014.88 1015.17 1015.41 1015.59 1015.72 1015.81 1015.89 1015.96 1016.05 1016.15 1016.25 1016.34 1016.42 1016.46 1016.46 1016.44 1016.39 1016.34 1016.30 1016.27 1016.25 1016.24 1016.23 1016.19 1016.14 1016.05 1015.94 1015.82 1015.70 1015.59
1009.33 1009.95 1010.62 1011.26 1011.84 1012.31 1012.70 1013.01 1013.28 1013.53 1013.78 1014.04 1014.30 1014.56 1014.78 1014.98 1015.14 1015.27 1015.39 1015.50 1015.61 1015.72 1015.83 1015.94 1016.03 1016.09 1016.11 1016.11 1016.08 1016.04 1016.00 1015.97 1015.94 1015.92 1015.89 1015.84 1015.76 1015.66 1015.53 1015.38 1015.24 1015.11 1015.02
1009.03 1009.61 1010.25 1010.90 1011.50 1012.02 1012.46 1012.83 1013.13 1013.40 1013.64 1013.87 1014.07 1014.27 1014.44 1014.59 1014.74 1014.87 1015.00 1015.14 1015.28 1015.41 1015.54 1015.64 1015.72 1015.76 1015.77 1015.75 1015.72 1015.68 1015.65 1015.63 1015.61 1015.59 1015.55 1015.48 1015.37 1015.23 1015.05 1014.87 1014.69 1014.55 1014.45
1008.79 1009.29 1009.87 1010.47 1011.06 1011.60 1012.09 1012.50 1012.86 1013.16 1013.41 1013.62 1013.81 1013.96 1014.11 1014.24 1014.37 1014.51 1014.66 1014.82 1014.98 1015.13 1015.26 1015.36 1015.42 1015.44 1015.42 1015.38 1015.33 1015.28 1015.25 1015.24 1015.22 1015.21 1015.17 1015.09 1014.97 1014.80 1014.59 1014.37 1014.16 1013.98 1013.86
1008.56 1008.94 1009.41 1009.94 1010.49 1011.03 1011.53 1011.99 1012.40 1012.74 1013.03 1013.27 1013.46 1013.61 1013.75 1013.89 1014.03 1014.18 1014.35 1014.54 1014.71 1014.88 1015.01 1015.09 1015.12 1015.10 1015.04 1014.97 1014.89 1014.82 1014.78 1014.76 1014.75 1014.75 1014.72 1014.64 1014.52 1014.33 1014.11 1013.86 1013.61 1013.41 1013.26
1008.31 1008.54 1008.88 1009.30 1009.78 1010.29 1010.81 1011.30 1011.76 1012.16 1012.50 1012.78 1013.01 1013.19 1013.36 1013.52 1013.68 1013.86 1014.06 1014.26 1014.46 1014.62 1014.74 1014.79 1014.79 1014.72 1014.61 1014.49 1014.36 1014.26 1014.20 1014.18 1014.18 1014.18 1014.16 1014.11 1013.99 1013.81 1013.58 1013.32 1013.05 1012.81 1012.63
1008.03 1008.11 1008.30 1008.60 1009.00 1009.46 1009.97 1010.49 1010.99 1011.45 1011.85 1012.19 1012.47 1012.71 1012.92 1013.12 1013.32 1013.54 1013.76 1013.98 1014.18 1014.33 1014.43 1014.44 1014.39 1014.27 1014.10 1013.92 1013.75 1013.62 1013.53 1013.50 1013.50 1013.52 1013.53 1013.49 1013.40 1013.25 1013.02 1012.76 1012.49 1012.23 1012.02
1007.76 1007.68 1007.73 1007.92 1008.22 1008.64 1009.12 1009.65 1010.18 1010.69 1011.15 1011.55 1011.89 1012.19 1012.45 1012.69 1012.94 1013.18 1013.42 1013.65 1013.84 1013.97 1014.03 1014.00 1013.90 1013.72 1013.50 1013.27 1013.06 1012.89 1012.79 1012.76 1012.77 1012.81 1012.85 1012.85 1012.79 1012.66 1012.47 1012.22 1011.95 1011.69 1011.47
1007.54 1007.33 1007.27 1007.35 1007.58 1007.94 1008.40 1008.92 1009.46 1009.99 1010.49 1010.94 1011.33 1011.67 1011.98 1012.26 1012.52 1012.78 1013.02 1013.23 1013.40 1013.50 1013.52 1013.45 1013.29 1013.07 1012.81 1012.55 1012.32 1012.14 1012.04 1012.01 1012.04 1012.11 1012.18 1012.22 1012.20 1012.11 1011.95 1011.73 1011.47 1011.21 1010.98
1007.45 1007.17 1007.02 1007.03 1007.19 1007.49 1007.91 1008.40 1008.93 1009.47 1009.98 1010.44 1010.85 1011.21 1011.53 1011.82 1012.08 1012.33 1012.55 1012.73 1012.86 1012.91 1012.89 1012.77 1012.58 1012.33 1012.06 1011.79 1011.56 1011.40 1011.32 1011.32 1011.38 1011.48 1011.59 1011.66 1011.68 1011.62 1011.49 1011.29 1011.04 1010.79 1010.55
1007.57 1007.25 1007.06 1007.02 1007.13 1007.38 1007.75 1008.19 1008.68 1009.18 1009.66 1010.10 1010.49 1010.84 1011.14 1011.40 1011.63 1011.83 1012.00 1012.13 1012.20 1012.20 1012.13 1011.98 1011.77 1011.52 1011.26 1011.02 1010.83 1010.72 1010.68 1010.72 1010.83 1010.96 1011.09 1011.19 1011.23 1011.19 1011.07 1010.88 1010.64 1010.39 1010.14
1007.94 1007.63 1007.44 1007.38 1007.45 1007.65 1007.95 1008.33 1008.74 1009.17 1009.58 1009.95 1010.28 1010.57 1010.80 1011.00 1011.17 1011.30 1011.39 1011.45 1011.45 1011.39 1011.28 1011.11 1010.90 1010.68 1010.47 1010.28 1010.16 1010.11 1010.14 1010.24 1010.38 1010.54 1010.69 1010.79 1010.82 1010.77 1010.64 1010.44 1010.20 1009.93 1009.68
1008.57 1008.31 1008.15 1008.08 1008.13 1008.27 1008.49 1008.78 1009.09 1009.41 1009.71 1009.98 1010.21 1010.40 1010.54 1010.64 1010.71 1010.74 1010.74 1010.71 1010.63 1010.52 1010.37 1010.20 1010.01 1009.83 1009.69 1009.59 1009.55 1009.59 1009.69 1009.84 1010.01 1010.19 1010.32 1010.40 1010.40 1010.32 1010.15 1009.91 1009.64 1009.35 1009.08
1009.43 1009.23 1009.10 1009.05 1009.06 1009.15 1009.29 1009.46 1009.65 1009.84 1010.01 1010.15 1010.25 1010.31 1010.34 1010.32 1010.27 1010.20 1010.09 1009.96 1009.80 1009.63 1009.46 1009.28 1009.13 1009.01 1008.94 1008.94 1009.00 1009.11 1009.28 1009.48 1009.67 1009.83 1009.94 1009.97 1009.91 1009.75 1009.52 1009.24 1008.92 1008.60 1008.30
1010.40 1010.28 1010.19 1010.14 1010.13 1010.15 1010.19 1010.25 1010.31 1010.36 1010.39 1010.39 1010.36 1010.29 1010.18 1010.05 1009.88 1009.68 1009.47 1009.25 1009.02 1008.79 1008.59 1008.42 1008.29 1008.23 1008.23 1008.31 1008.45 1008.64 1008.87 1009.09 1009.28 1009.41 1009.47 1009.42 1009.28 1009.05 1008.74 1008.39 1008.02 1007.67 1007.35
Thickness
5739 5744 5746 5747 5746 5745 5745 5743 5741 5740 5739 5735 5732 5728 5725 5724 5722 5720 5718 5715 5712 5710 5707 5704 5702 5700 5697 5695 5694 5693 5691 5690 5691 5690 5690 5694 5698 5700 5702 5704 5706 5707 5708
5733 5738 5741 5744 5743 5742 5742 5740 5739 5738 5737 5735 5731 5729 5725 5722 5720 5717 5714 5712 5710 5707 5705 5702 5699 5697 5694 5691 5690 5688 5685 5684 5685 5682 5679 5678 5683 5690 5696 5697 5699 5701 5703
5733 5735 5738 5740 5741 5740 5741 5741 5738 5737 5735 5733 5730 5727 5722 5718 5715 5712 5710 5709 5708 5706 5703 5700 5697 5694 5691 5688 5686 5684 5681 5678 5679 5678 5674 5669 5667 5674 5683 5687 5690 5692 5695
5738 5739 5740 5740 5740 5741 5742 5740 5738 5736 5734 5732 5729 5723 5717 5712 5711 5710 5708 5707 5705 5703 5701 5698 5695 5691 5688 5685 5683 5681 5678 5675 5672 5672 5672 5669 5667 5664 5666 5675 5680 5683 5686
5743 5742 5744 5744 5744 5744 5742 5739 5737 5735 5734 5731 5728 5722 5717 5713 5710 5708 5706 5704 5703 5701 5699 5696 5692 5689 5685 5683 5680 5678 5675 5672 5669 5666 5666 5665 5663 5662 5658 5659 5665 5671 5676
5748 5746 5747 5746 5745 5744 5742 5740 5736 5734 5733 5730 5726 5722 5716 5712 5709 5706 5703 5701 5700 5698 5696 5693 5689 5686 5683 5680 5677 5675 5672 5669 5666 5663 5660 5658 5655 5654 5652 5651 5652 5656 5664
5751 5748 5746 5745 5744 5744 5743 5740 5737 5734 5732 5729 5725 5722 5717 5713 5709 5705 5702 5699 5696 5694 5692 5690 5687 5683 5680 5677 5674 5671 5667 5665 5661 5658 5656 5653 5651 5650 5648 5645 5645 5647 5652
5754 5752 5751 5750 5749 5747 5745 5742 5738 5734 5731 5728 5724 5721 5717 5713 5709 5705 5702 5698 5695 5693 5690 5687 5684 5681 5678 5674 5671 5667 5663 5660 5657 5654 5651 5649 5647 5645 5643 5641 5639 5638 5640
5758 5757 5756 5755 5753 5750 5747 5744 5739 5735 5731 5728 5724 5720 5717 5713 5708 5705 5702 5698 5695 5692 5688 5685 5681 5678 5674 5671 5667 5662 5659 5655 5652 5649 5646 5643 5642 5640 5638 5636 5634 5630 5629
5763 5761 5760 5759 5757 5754 5750 5746 5741 5736 5732 5728 5724 5720 5716 5713 5709 5705 5700 5696 5693 5690 5686 5682 5678 5675 5671 5667 5663 5658 5654 5650 5647 5644 5641 5638 5636 5634 5632 5630 5628 5626 5624
5767 5765 5763 5762 5758 5754 5749 5744 5740 5735 5731 5727 5723 5719 5715 5712 5708 5703 5699 5695 5691 5687 5683 5679 5675 5671 5667 5663 5658 5654 5650 5646 5642 5639 5636 5633 5631 5627 5625 5623 5621 5619 5618
5771 5768 5764 5760 5755 5751 5748 5744 5739 5735 5731 5727 5723 5718 5714 5710 5706 5701 5698 5694 5690 5686 5681 5677 5672 5668 5664 5660 5655 5650 5646 5642 5637 5634 5630 5627 5625 5621 5618 5616 5613 5612 5611
5768 5764 5760 5757 5753 5750 5746 5743 5739 5735 5731 5726 5721 5716 5712 5708 5703 5700 5696 5692 5687 5683 5678 5674 5669 5665 5661 5656 5652 5647 5642 5638 5634 5629 5625 5622 5618 5615 5612 5609 5607 5605 5605
5765 5761 5757 5754 5752 5749 5745 5741 5737 5735 5730 5725 5719 5714 5710 5706 5702 5698 5694 5689 5685 5680 5675 5671 5667 5662 5658 5653 5649 5644 5639 5634 5629 5625 5621 5617 5613 5609 5606 5604 5601 5599 5597
5760 5758 5755 5751 5749 5745 5742 5739 5736 5733 5729 5723 5717 5713 5709 5705 5700 5695 5691 5686 5682 5677 5672 5668 5663 5659 5654 5650 5645 5640 5635 5629 5624 5620 5616 5612 5609 5606 5602 5599 5596 5593 5590
5760 5758 5754 5750 5747 5744 5741 5738 5734 5731 5727 5721 5715 5712 5706 5701 5696 5692 5687 5682 5678 5673 5668 5663 5659 5654 5651 5648 5643 5636 5630 5625 5619 5615 5610 5607 5604 5601 5599 5596 5593 5590 5585
5760 5756 5754 5752 5749 5746 5742 5737 5734 5729 5723 5718 5713 5709 5703 5698 5693 5689 5683 5678 5673 5669 5664 5659 5655 5650 5646 5643 5638 5633 5626 5620 5614 5610 5605 5602 5600 5596 5593 5590 5588 5586 5583
5759 5757 5754 5751 5748 5745 5741 5737 5731 5725 5719 5714 5710 5705 5700 5695 5690 5684 5679 5675 5670 5665 5660 5656 5651 5646 5643 5639 5634 5628 5622 5615 5610 5605 5601 5596 5593 5591 5587 5584 5581 5579 5577
5759 5758 5757 5753 5747 5742 5738 5732 5725 5720 5714 5710 5706 5702 5697 5691 5685 5680 5675 5671 5665 5660 5656 5652 5647 5642 5639 5635 5630 5624 5616 5610 5606 5601 5597 5592 5588 5586 5582 5577 5574 5572 5571
5755 5753 5752 5748 5742 5739 5734 5726 5719 5714 5710 5707 5703 5698 5693 5687 5682 5677 5672 5667 5662 5657 5652 5648 5644 5639 5635 5631 5626 5619 5611 5605 5600 5596 5592 5588 5584 5581 5577 5572 5568 5565 5565
5748 5747 5744 5740 5737 5733 5727 5719 5713 5709 5708 5704 5698 5693 5688 5683 5678 5672 5667 5662 5656 5651 5646 5642 5639 5635 5631 5627 5622 5616 5607 5601 5596 5591 5587 5584 5580 5576 5572 5567 5563 5561 5560
5736 5736 5732 5730 5728 5724 5719 5712 5707 5707 5702 5696 5691 5686 5681 5676 5672 5665 5660 5655 5649 5644 5639 5635 5632 5629 5626 5622 5618 5612 5606 5599 5592 5588 5584 5580 5576 5571 5566 5562 5559 5557 5553
5724 5724 5721 5717 5714 5712 5709 5703 5701 5697 5692 5686 5681 5677 5672 5667 5663 5657 5652 5646 5642 5636 5632 5628 5625 5623 5621 5617 5613 5608 5602 5596 5588 5585 5580 5575 5570 5565 5561 5558 5555 5552 5547
5709 5709 5707 5702 5699 5698 5697 5694 5690 5686 5681 5675 5670 5666 5661 5657 5654 5649 5645 5639 5635 5630 5626 5622 5619 5617 5614 5610 5606 5601 5596 5590 5584 5579 5574 5570 5565 5560 5557 5555 5552 5549 5546
5694 5693 5691 5688 5686 5685 5682 5680 5678 5674 5668 5663 5659 5655 5651 5647 5644 5640 5637 5633 5631 5627 5622 5619 5615 5611 5608 5607 5603 5596 5590 5584 5578 5571 5565 5560 5557 5554 5552 5551 5549 5547 5544
5679 5677 5676 5674 5672 5671 5668 5666 5665 5661 5656 5650 5646 5643 5639 5636 5633 5630 5629 5628 5625 5623 5618 5614 5611 5609 5606 5603 5597 5590 5585 5578 5571 5562 5558 5555 5552 5551 5549 5548 5547 5545 5544